Spokane Fairchild, WA
on Sunday, February 3, 2013

Sunday
Previous Day Next Day
Daily Summary
 ActualAverage (KGEG)Record (KGEG)
Temperature
Mean Temperature °F 32°F  
Max Temperature 32°F 37°F 54°F (1909)
Min Temperature 26°F 26°F -21°F (1883)
Degree Days
Heating Degree Days 36 33  
Month to date heating degree days 101  
Since 1 July heating degree days 4034  
Cooling Degree Days 0 0  
Month to date cooling degree days 0  
Year to date cooling degree days 0  
Moisture
Dew Point 31°F   
Average Humidity 100    
Maximum Humidity 100    
Minimum Humidity 95    
Precipitation
Precipitation 0.00 in 0.04 in 0.70 in (1963)
Month to date precipitation 0.13  
Year to date precipitation 1.92  
Snow
Snow 0.00 in 0.30 in 7.10 in (1913)
Month to date snowfall 0.9  
Since 1 July snowfall 34.4  
Snow Depth 1.00 in   
Wind
Wind Speed 1 mph   
Max Wind Speed 6 mph   
Max Gust Speed mph   
Visibility 1 miles   
Events Fog , Rain   

Key: T is trace of precipitation, MM is missing value
Source: NWS Daily Summary
Time(PST)TemperatureDew PointHumidity Pressure Visibility Wind DirectionWind SpeedGust SpeedPrecipitationEvents Conditions
12:58 AM 26.6°F 26.6°F 100% 30.27 in 0.5 miles Calm Calm - N/A Fog Light Freezing Fog
1:58 AM 26.6°F 26.6°F 100% 30.27 in 0.5 miles Calm Calm - N/A Fog Light Freezing Fog
1:59 AM - - N/A% 30.19 in 0.8 miles Calm Calm - N/A Rain Light Freezing Rain
2:58 AM 26.8°F 26.6°F 99% 30.27 in 0.5 miles Calm Calm - N/A Fog Light Freezing Fog
3:47 AM 26.6°F 26.6°F 100% 30.25 in 0.8 miles Calm Calm - N/A   Mist
3:58 AM 26.1°F 26.6°F 100% 30.26 in 1.2 miles Calm Calm - N/A   Mist
4:09 AM 26.6°F 26.6°F 100% 30.25 in 2.0 miles Calm Calm - N/A   Overcast
4:21 AM 26.6°F 26.6°F 100% 30.25 in 3.0 miles Calm Calm - N/A   Overcast
4:34 AM 26.6°F 26.6°F 100% 30.25 in 2.0 miles Calm Calm - N/A   Overcast
4:58 AM 26.6°F 26.6°F 100% 30.23 in 2.5 miles Calm Calm - N/A   Overcast
5:34 AM 26.6°F 26.6°F 100% 30.24 in 10.0 miles Calm Calm - N/A   Overcast
5:58 AM 27.9°F 26.6°F 95% 30.23 in 10.0 miles Calm Calm - N/A   Overcast
6:21 AM 28.4°F 28.4°F 100% 30.25 in 2.5 miles Calm Calm - N/A   Overcast
6:28 AM 28.4°F 28.4°F 100% 30.24 in 0.8 miles Calm Calm - N/A   Mist
6:45 AM 28.4°F 28.4°F 100% 30.24 in 0.2 miles Calm Calm - N/A Fog Light Freezing Fog
6:55 AM 28.8°F 28.8°F 100% 30.23 in 0.2 miles Calm Calm - N/A Fog Light Freezing Fog
7:55 AM 29.7°F 29.7°F 100% 30.24 in 0.1 miles Calm Calm - N/A Fog Light Freezing Fog
8:55 AM 30.2°F 30.2°F 100% 30.25 in 0.1 miles Calm Calm - N/A Fog Light Freezing Fog
9:55 AM 31.5°F 31.5°F 100% 30.25 in 0.1 miles SSE 4.6 mph - N/A Fog Fog
10:22 AM 32.0°F 32.0°F 100% 30.25 in 0.5 miles South 4.6 mph - N/A Fog Fog
10:55 AM 32.0°F 32.0°F 100% 30.26 in 0.5 miles SSE 3.5 mph - N/A Fog Fog
11:14 AM 32.0°F 32.0°F 100% 30.25 in 1.5 miles SE 3.5 mph - N/A   Overcast
11:25 AM 32.0°F 32.0°F 100% 30.25 in 1.0 miles South 4.6 mph - N/A   Overcast
11:43 AM 32.0°F 32.0°F 100% 30.23 in 0.8 miles South 3.5 mph - N/A   Mist
11:55 AM 32.5°F 32.5°F 100% 30.23 in 1.0 miles Calm Calm - N/A   Mist
12:48 PM 32.0°F 32.0°F 100% 30.23 in 2.0 miles South 5.8 mph - N/A   Overcast
12:55 PM 32.4°F 32.4°F 100% 30.22 in 2.0 miles Calm Calm - N/A   Overcast
1:11 PM 32.0°F 32.0°F 100% 30.22 in 1.5 miles South 5.8 mph - N/A   Overcast
1:30 PM 32.0°F 32.0°F 100% 30.22 in 2.0 miles SSW 3.5 mph - N/A   Overcast
1:55 PM 32.0°F 32.0°F 100% 30.21 in 1.0 miles South 4.6 mph - N/A   Overcast
2:01 PM 32.0°F 32.0°F 100% 30.12 in 0.8 miles South 5.8 mph - N/A   Mist
2:06 PM 32.0°F 32.0°F 100% 30.12 in 1.2 miles South 3.5 mph - N/A   Overcast
2:11 PM 32.0°F 32.0°F 100% 30.12 in 2.5 miles South 3.5 mph - N/A   Overcast
2:21 PM 32.0°F 32.0°F 100% 30.12 in 3.0 miles South 3.5 mph - N/A   Overcast
2:31 PM 32.0°F 32.0°F 100% 30.13 in 2.5 miles South 1.2 mph - N/A   Overcast
2:41 PM 32.0°F 32.0°F 100% 30.14 in 1.8 miles West 2.3 mph - N/A   Overcast
2:46 PM 32.0°F 32.0°F 100% 30.14 in 1.5 miles WNW 2.3 mph - N/A   Overcast
2:53 PM 32.0°F 32.0°F 100% 30.14 in 1.2 miles WNW 2.3 mph - N/A   Overcast
2:58 PM 32.0°F 32.0°F 100% 30.22 in 1.2 miles WNW 2.3 mph - 0.00 in   Overcast
3:03 PM 32.0°F 32.0°F 100% 30.15 in 1.5 miles WNW 3.5 mph - N/A   Overcast
3:04 PM 32.0°F 32.0°F 100% 30.15 in 1.5 miles WNW 3.5 mph - N/A   Overcast
3:08 PM 32.0°F 32.0°F 100% 30.14 in 1.2 miles WNW 3.5 mph - N/A   Overcast
3:13 PM 32.0°F 32.0°F 100% 30.14 in 1.0 miles WNW 4.6 mph - N/A   Unknown
3:31 PM 32.0°F 32.0°F 100% 30.13 in 0.8 miles NNW 2.3 mph - N/A   Mist
3:46 PM 32.0°F 32.0°F 100% 30.12 in 0.8 miles NNE 2.3 mph - N/A   Mist
3:51 PM 32.0°F 32.0°F 100% 30.12 in 0.5 miles NE 2.3 mph - N/A Fog Fog
3:58 PM 32.0°F 32.0°F 100% 30.20 in 0.5 miles NNE 3.5 mph - 0.00 in Fog Fog
4:19 PM 32.0°F 32.0°F 100% 30.19 in 0.2 miles Calm Calm - N/A Fog Fog
4:33 PM 32.0°F 32.0°F 100% 30.18 in 0.5 miles Calm Calm - N/A Fog Fog
4:42 PM 32.0°F 32.0°F 100% 30.19 in 1.0 miles Calm Calm - N/A   Mist
4:43 PM 32.0°F - N/A% 30.19 in 1.5 miles East 1.2 mph - N/A   Overcast
4:55 PM 32.4°F 32.4°F 100% 30.19 in 1.5 miles Calm Calm - N/A   Overcast
4:56 PM 32.0°F 32.0°F 100% 30.18 in 2.0 miles NNE 2.3 mph - N/A   Overcast
5:03 PM 32.0°F - N/A% 30.19 in 2.5 miles NNE 1.2 mph - N/A   Overcast
5:13 PM 32.0°F 32.0°F 100% 30.19 in 3.0 miles Calm Calm - N/A   Overcast
5:55 PM 32.7°F 32.7°F 100% 30.19 in 2.5 miles North 4.6 mph - N/A   Overcast
6:10 PM 32.0°F 32.0°F 100% 30.18 in 1.0 miles Calm Calm - N/A   Mist
6:27 PM 32.0°F 32.0°F 100% 30.18 in 0.5 miles ENE 2.3 mph - N/A Fog Fog
6:28 PM 32.0°F 32.0°F 100% 30.18 in 0.2 miles Calm Calm - N/A Fog Fog
6:42 PM 32.0°F 32.0°F 100% 30.17 in 0.2 miles NE 3.5 mph - N/A Fog Fog
6:55 PM 32.4°F 32.4°F 100% 30.17 in 0.2 miles North 3.5 mph - N/A Fog Fog
7:55 PM 32.0°F 32.0°F 100% 30.17 in 0.8 miles Calm Calm - N/A   Mist
8:55 PM 32.0°F 32.0°F 100% 30.16 in 0.2 miles SSE 2.3 mph - N/A Fog Fog
9:55 PM 32.0°F 32.0°F 100% 30.13 in 0.5 miles South 2.3 mph - N/A Fog Fog
10:55 PM 32.0°F 32.0°F 100% 30.17 in 0.5 miles West 2.3 mph - N/A Fog Fog
11:31 PM 32.0°F 32.0°F 100% 30.14 in 1.2 miles SSW 5.8 mph - N/A   Overcast
11:55 PM 32.0°F 32.0°F 100% 30.14 in 2.0 miles SSW 3.5 mph - N/A   Overcast
Moon Phase
Feb. 03 Feb. 10 Feb. 17 Feb. 25 Mar. 04
Sunrise:07:14 AM (PST) Moon Rise:12:48 AM (PST)2/3
Sunset:04:55 PM (PST) Moon Set:10:33 AM (PST)2/3

Copyright © 2014 The Weather Underground, Inc.